Theta_e
292 291 291 292 291 291 291 292 292 290 290 290 291 290 289 289 288 287 286 286 288 288
291 290 290 291 291 291 291 292 291 290 289 290 290 290 289 288 287 287 287 287 288 289
289 290 290 290 290 290 291 291 290 289 289 289 289 289 288 287 287 286 286 287 287 288
288 288 289 288 289 289 290 290 290 289 288 289 289 288 288 287 287 286 286 286 286 287
287 287 286 287 288 289 289 289 289 289 288 288 288 288 287 286 287 286 285 285 285 287
284 285 285 285 287 288 288 288 288 288 287 287 287 287 287 287 286 285 285 285 285 286
283 283 284 284 285 286 287 287 287 287 287 287 287 287 286 286 285 284 284 285 286 286
282 283 284 283 283 284 285 286 287 286 285 286 286 287 285 285 284 283 283 284 285 284
279 280 280 281 282 282 283 284 284 285 284 284 286 289 290 287 283 283 281 280 280 282
278 279 279 279 280 279 280 282 282 283 284 284 284 289 289 288 282 281 280 279 280 279
277 279 279 280 279 278 279 279 280 281 283 283 283 288 289 287 282 280 279 279 278 278
276 279 280 279 280 278 277 278 279 281 283 284 283 287 288 286 284 282 279 279 279 279
277 279 279 279 280 280 278 278 279 280 283 284 284 286 287 286 283 280 279 277 279 282
277 278 279 279 279 280 278 277 278 279 282 283 283 280 287 286 283 281 278 279 278 278
Wind_Speed
5 3 4 5 4 4 4 4 5 5 6 6 5 5 5 4 4 4 4 6 6 6
6 6 5 7 6 4 5 4 5 5 5 6 6 6 6 4 5 4 5 5 6 6
6 7 7 6 7 7 6 6 6 6 6 6 6 6 6 5 5 5 4 5 5 6
6 6 6 6 6 7 6 7 7 7 7 7 8 7 6 7 6 7 6 6 7 8
7 7 6 6 7 7 7 7 7 7 8 8 8 7 8 8 7 7 6 6 6 8
7 7 7 7 7 8 9 8 8 9 10 10 9 8 9 8 7 7 6 6 6 7
8 7 7 8 10 10 9 10 10 9 10 10 9 9 9 8 8 7 6 6 5 8
8 7 9 9 10 11 11 11 12 10 9 9 10 9 9 9 7 7 6 6 7 7
7 7 8 9 10 10 11 12 11 12 11 10 10 16 17 11 7 6 6 5 6 7
8 8 9 9 9 10 11 11 12 12 11 12 11 18 17 16 5 5 5 6 7 6
7 10 10 10 10 10 9 11 11 11 12 11 10 19 19 15 6 6 7 6 6 7
6 11 10 10 12 10 9 10 11 11 12 12 10 19 20 17 10 11 9 7 7 7
7 11 13 12 13 12 9 11 10 12 12 13 12 18 22 18 9 11 6 5 6 11
8 11 13 14 12 14 10 10 11 12 11 12 11 11 22 22 11 9 6 6 4 3
Wind_Direction
307 279 263 268 273 261 245 234 224 211 197 222 233 232 231 230 234 219 231 237 239 253
316 309 285 272 269 265 260 250 240 214 213 227 230 225 224 227 232 227 234 246 254 261
322 318 305 293 277 271 267 250 241 225 218 224 228 222 219 222 224 222 233 242 246 264
314 310 303 292 276 260 261 252 239 225 218 221 220 219 222 221 217 222 227 237 243 259
310 313 318 309 303 289 261 248 242 228 223 223 222 214 219 224 226 224 227 236 242 260
297 299 298 295 294 295 292 268 244 234 229 228 224 219 222 221 222 222 224 229 239 260
287 282 281 288 294 292 287 283 269 238 231 226 222 222 221 221 220 222 224 226 241 265
276 270 276 281 286 288 286 283 279 262 233 228 224 223 220 217 217 218 222 226 252 249
274 267 264 273 279 282 284 284 278 269 244 227 228 231 226 211 208 211 206 219 235 240
274 274 272 272 269 274 282 284 274 268 258 238 228 228 225 221 199 210 217 216 236 246
270 277 274 271 265 270 275 275 274 267 259 247 228 224 230 221 204 218 226 222 227 235
272 288 283 279 284 268 270 275 271 264 257 247 240 227 227 226 226 234 230 227 227 229
279 288 285 286 291 281 257 268 269 265 253 245 241 226 228 224 227 236 230 231 230 237
284 290 286 285 290 288 266 265 264 259 253 246 234 223 226 222 222 228 220 229 220 219